Zurück zum Katalog

STARLINK-34041

AktivKommunikationVLEO
NORAD 63844·PAYLOAD·🇺🇸 United States

Gestartet May 7, 2025 von Cape Canaveral Space Force Station

Loading…

Nächste Überflüge (nächste 24 Stunden)

TLE

AktuellSource: CelesTrak SupGP

Epoche: Sep 15, 2026, 03:21 UTC

1 63844C 25093J   26258.14006944 -.00011660  00000+0 -42234-3 0  2586
2 63844  43.0003  88.2813 0001642 272.1148  54.0576 15.27583441    13

Verfolge STARLINK-34041 in Echtzeit mit AllMySat

Download on the App Store